Location: Azul
(36.7830°S, 59.8500°W)
Time: 21:04:08
(UTC-03:00)

ISS - Pass Details

Date: 20 February 2020
Orbit: 415 x 422 km, 51.6° (Epoch: 27 February)

Event Time Altitude Azimuth Distance (km) Brightness Sun altitude
Rises 20:29:45 0° 275° (W) 2,377 1.4 -8.4°
Reaches altitude 10° 20:32:16 10° 256° (WSW) 1,516 0.7 -8.8°
Maximum altitude 20:34:48 19° 208° (SSW) 1,083 -1.0 -9.3°
Drops below altitude 10° 20:37:20 10° 160° (SSE) 1,523 -0.9 -9.8°
Sets 20:39:53 0° 141° (SE) 2,391 -0.1 -10.3°
